User: anonymous   Login
Location: Nag� el Ma?a??a
(24.0667°N, 32.8833°E)
Time: 13:44:39
(UTC+00:00)
Language:

FALCON 9 DEB - Orbit

View from above orbital plane
View from above orbital plane
View from above satellite
View from above satellite

Ground track
Ground track

The orbit data is extracted from the following two-line orbital elements,

1 44295U 19029BN  21330.94783226  .00006011  00000-0  12141-3 0  9995
2 44295  52.9993 123.3248 0007078 328.8031  31.2554 15.47983916143060
Epoch (UTC): 26 November 2021 22:44:52
Eccentricity: 0.0007078
inclination: 52.9993°
perigee height: 418 km
apogee height: 427 km
right ascension of ascending node: 123.3248°
argument of perigee: 328.8031°
revolutions per day: 15.47983916
mean anomaly at epoch: 31.2554°
orbit number at epoch: 14306

The dashed part of the orbit path shows where the satellite is in the earth's shadow,  

DLR